User: anonymous   Login
Location: Walnut Point State Park
(39.6958°N, 88.0345°W)
Time: 06:23:03
(UTC-05:00)
Language:

ATLAS 3B R/B - Orbit

View from above orbital plane
View from above orbital plane
View from above satellite
View from above satellite

Ground track
Ground track

The orbit data is extracted from the following two-line orbital elements,

1 28538U 05004B   15087.12894767 0.00000040  00000-0  62192-4 0    01
2 28538  63.8210 184.1695 0199000 230.4566 129.5434 13.43053924    09
Epoch (UTC): 28 March 2015 03:05:41
Eccentricity: 0.0199000
inclination: 63.8210°
perigee height: 949 km
apogee height: 1246 km
right ascension of ascending node: 184.1695°
argument of perigee: 230.4566°
revolutions per day: 13.43053924
mean anomaly at epoch: 129.5434°
orbit number at epoch: 0

The dashed part of the orbit path shows where the satellite is in the earth's shadow,  

DLR